Regional Weather Roundup
Issued by NWS Grand Forks, ND

Home | Current Version | Previous Version | Text Only | Print | Product List | Glossary On
Versions: 1 2 3 4 5 6 7 8 9 10 11 12 13 14 15 16 17 18 19 20 21 22 23 24 25 26 27 28 29 30 31 32 33 34 35 36 37 38 39 40 41 42 43 44 45 46 47 48 49 50
000
ASUS43 KFGF 211510
RWRFGF
PRAIRIE TO PINES  WEATHER ROUNDUP
NATIONAL WEATHER SERVICE EASTERN NORTH DAKOTA/GRAND FORKS ND
900 AM CST TUE FEB 21 2017

 **SATELLITE DATA USED TO AUGMENT SKY COVER AT AUTOMATED STATIONS**
 *****  WEATHER ACROSS EASTERN NORTH DAKOTA  *****

CITY           SKY/WX    TMP DP  RH WIND       PRES   REMARKS
GRAND FORKS    FAIR      33  29  85 SE7       29.70F FOG
GRAND FRKS AFB FAIR      32  32  99 SE3       29.70S FOG
DEVILS LAKE    FAIR      31  29  92 SE5       29.66S
FARGO          FAIR      39  33  79 S10       29.69S
WAHPETON ARPT    N/A     34  32  93 SE7       29.71F
$$

 ***** WEATHER ACROSS CENTRAL AND WESTERN NORTH DAKOTA  *****

CITY           SKY/WX    TMP DP  RH WIND       PRES   REMARKS
BISMARCK       FAIR      33  30  88 SE5       29.70R
MINOT          FLURRIES  34  30  85 S5        29.64S
JAMESTOWN      FAIR      35  31  85 W6        29.65S
MINOT AFB      FAIR      28  26  90 CALM      29.64S
GARRISON         N/A     31  27  85 SW6       29.67R
WILLISTON      FAIR      34  29  82 CALM      29.66S
DICKINSON      FAIR      39  30  70 SW6       29.68R
HETTINGER      PTSUNNY   36  30  79 CALM      29.74R
$$

 *****  OTHER AIRPORT OBSERVATIONS IN OUR AREA  *****

CITY           SKY/WX    TMP DP  RH WIND       PRES   REMARKS
WALHALLA       NOT AVBL
GRAFTON AIRPOR NOT AVBL
VALLEY CITY AR FAIR      36  36 100 S3        29.68S
CANDO          NOT AVBL
CAVALIER APRT  FOG       32  32 100 SE7       29.71F VSB<1/4
GWINNER        FAIR      39  36  87 SW9       29.69S
SHEYENNE NWR     N/A     36  33  90 S5        29.95S
ROLLA          FAIR      28  28 100 N3        29.67S
 ***** THE ABOVE OBSERVATIONS ARE NON NWS ARE NOT QUALITY
       CONTROLLED AND MAY MIS-REPORT RAIN FOR SNOW...
$$

  *****  WEATHER ACROSS NORTHERN MINNESOTA  *****

CITY           SKY/WX    TMP DP  RH WIND       PRES   REMARKS
FLAG ISLAND    FOG       30  30 100 S8        29.74S VSB 1/2 WCI  23
WARROAD        CLOUDY    32  28  86 S5        29.75F FOG
ROSEAU         CLOUDY    32  27  80 S5        29.74F HAZE
HALLOCK        PTSUNNY   34  32  93 E6        29.72F FOG
THF RVR FALLS  FAIR      34  33  96 E8        29.72F FOG
BAUDETTE       CLOUDY    32  31  96 S3        29.76R
WASKISH        FOG       34  34 100 CALM      29.76S VSB 1/4
CROOKSTON      FAIR      34  34 100 SE5       29.72S FOG
GREENBUSH NDAW   N/A     30  30 100 E6          N/A  WCI  24
$$
  *****  WEATHER ACROSS CENTRAL AND WEST MINNESOTA  *****

CITY           SKY/WX    TMP DP  RH WIND       PRES   REMARKS
FOSSTON        FAIR      34  32  93 CALM      29.72F FOG
BEMIDJI        FAIR      32  32 100 E5        29.74F FOG
PARK RAPIDS    FAIR      33  31  92 SE8       29.74F FOG
ELBOW LAKE     FAIR      38  34  84 S16       29.71F
WADENA         FAIR      34  34 100 SE5       29.76S FOG
DETROIT LAKES  FAIR      34  32  93 SE9       29.73S FOG
MOORHEAD       FAIR      39  32  75 S13       29.70S
FERGUS FALLS   FAIR      39  32  75 SE8       29.77R
MORRIS MN      FAIR      37  34  87 SE10      29.73F
STAPLES        FAIR      30  30 100 SE6       29.78S FOG     WCI  24
$$
  *****  WEATHER ELSEWHERE ACROSS MINNESOTA  *****

CITY           SKY/WX    TMP DP  RH WIND       PRES   REMARKS
DULUTH         FOG       34  34 100 W12       29.80F VSB 1/4
INTRNTL FALLS  CLOUDY    33  31  92 VRB7      29.77R FOG
ELY            CLOUDY    34  32  93 W8        29.77S
CLOQUET        FOG       34  32  93 SW7       29.81S VSB 1/4
WHEATON        FAIR      39  34  81 S13G18    29.73S
BRAINERD       FOG       31  31 100 SE6       29.81F VSB 1/4
HIBBING        CLOUDY    33  33 100 SW3       29.79S FOG
ALEXANDRIA     FAIR      39  32  76 S13       29.76F
SAINT CLOUD    FOG       31  31 100 SE7       29.84S VSB 1/4 WCI  24
MINNEAPOLIS    FOG       33  31  92 SE7       29.89F VSB 1/8
$$

  *****  WEATHER ACROSS SOUTH DAKOTA  *****

CITY           SKY/WX    TMP DP  RH WIND       PRES   REMARKS
SIOUX FALLS    FAIR      47  36  65 SW16G25   29.83S
BROOKINGS      FAIR      42  34  73 S13       29.79S
WATERTOWN      FAIR      39  33  79 S10       29.75S
HURON          FAIR      42  32  67 S6        29.76S
SISSETON         N/A     45  35  68 VRB3      29.70S
ABERDEEN       FAIR      38  31  76 S5        29.72R
MITCHELL       FAIR      47  31  53 SW13      29.79F
PIERRE         FAIR      48  33  56 W8        29.74S
MOBRIDGE       FAIR      41  32  70 N6        29.69R
RAPID CITY     FAIR      56  34  43 N5        29.75S
$$

  *****  SOME WEATHER IN NEARBY STATES *****

CITY           SKY/WX    TMP DP  RH WIND       PRES   REMARKS
GLASGOW MT     FAIR      36  32  85 CALM      29.65F
GREAT FALLS MT MOCLDY    37  31  78 S5        29.61F
CHEYENNE WY    FAIR      50  25  37 W25G39    30.04R
SCOTTSBLUFF NE FAIR      50  29  44 N3        29.93R
OMAHA NE       FAIR      40  38  93 S6        30.00F
DES MOINES IA  FAIR      45  42  89 S6        29.98S
DAVENPORT IA   FAIR      47  45  93 N3        29.96S
CHICAGO IL     CLOUDY    57  53  86 W6        29.94R FOG
EAU CLAIRE WI  CLOUDY    37  35  92 S7        29.90S FOG
LA CROSSE WI   FAIR      41  38  89 SE5       29.94S
$$

  *****  SOME NATIONAL WEATHER *****

CITY           SKY/WX    TMP DP  RH WIND       PRES   REMARKS
LA GUARDIA NY  PTSUNNY   40  22  48 NE8       30.38S
RALEIGH NC     CLOUDY    54  34  46 E7        30.28F
ATLANTA GA     PTSUNNY   59  49  69 SE10      30.11S
NEW ORLEANS LA CLOUDY    61  59  93 SW6       30.00R
OKLAHOMA CITY  FAIR      51  44  77 NW15      30.01R
ALBUQUERQUE NM FAIR      45  33  63 N8        30.37R
SALT LAKE CITY FAIR      52  38  58 S18G30    30.04S
LOS ANGELES CA MOCLDY    58  56  93 CALM      30.29S
BOISE ID       FAIR      49  32  52 S16G26    29.86R
SEATTLE WA     LGT RAIN  42  40  92 N9        29.75R FOG
$$

*** WEATHER ACROSS MANITOBA...SASKATCHEWAN AND ONTARIO ***
                ***ONTARIO***

CITY           SKY/WX    TMP DP  RH WIND       PRES   REMARKS
GERALDTON      LGT RAIN  36  34  93 W21G26    29.55R FOG
THUNDER BAY    PTSUNNY   37  32  81 W13G22    29.73R
SIOUX LOOKOUT  CLOUDY    34  28  80 W12G20    29.66S
TORONTO        CLOUDY    39  27  60 S3        30.02F
BIG TROUT LK   CLOUDY    30  27  86 W22G31    29.33R WCI  17
PICKLE LAKE    CLOUDY    32  30  93 W17G31    29.51R WCI  21
DRYDEN         CLOUDY    34  32  93 SW10      29.69R
KENORA         CLOUDY    32  30  93 SW8       29.71S WCI  25
$$
                *** MANITOBA***

CITY           SKY/WX    TMP DP  RH WIND       PRES   REMARKS
BRANDON        PTSUNNY   32  32 100 E3        29.68R FOG
DAUPHIN        CLOUDY    34  30  86 W7        29.68S
ISLAND LAKE    FLURRIES  27  25  93 W21G26    29.52R WCI  13
PILOT MOUND      N/A     32  30  93 E7          N/A
THE PAS        CLOUDY    30  23  74 NW10      29.65S WCI  21
THOMPSON       CLOUDY    18  14  86 W13       29.52R WCI   4
WINNIPEG       LGT SNOW  34  32  93 S7        29.72F
LYNN LAKE      FLURRIES  16  14  93 NW9       29.55S WCI   4
CHURCHILL      LGT SNOW  12  10  92 E22G35    29.45F VSB 3/4 WCI  -7
GILLAM         FLURRIES  10   5  79 NW16G23   29.42R WCI  -7
$$
                ***SASKATCHEWAN***

CITY           SKY/WX    TMP DP  RH WIND       PRES   REMARKS
ESTEVAN        PTCLDY    28  28 100 S7        29.64R WCI  21
KINDERSLEY     MOCLDY    28  27  93 NE3       29.68R
LLOYDMINSTER   CLOUDY    28  27  93 CALM      29.67R
PRINCE ALBERT  CLOUDY    30  27  86 W3        29.68S
REGINA         MOCLDY    32  30  93 NE12      29.64R WCI  23
YORKTON        CLOUDY    30  28  93 SW5       29.67R
N. BATTLEFORD  CLOUDY    30  30 100 N3        29.71S
LA RONGE       CLOUDY    28  25  86 W6        29.65R WCI  22
SASKATOON      CLOUDY    32  27  80 N5        29.70S
SWIFT CURRENT  FRZ RAIN  30  30 100 NE10      29.62R WCI  21
$$
NOTE: THESE ARE AUTOMATED STATIONS WITH LIMITED QUALITY CONTROL
      "FAIR" INDICATES FEW OR NO CLOUDS BELOW 12,000 FEET WITH NO
      SIGNIFICANT WEATHER AND/OR OBSTRUCTIONS TO VISIBILITY.
      SKY/WX - SKY CONDITION AND SIGNIFICANT WEATHER.
      TMP - AIR TEMPERATURE.    DP   - DEWPOINT TEMPERATURE.
      RH  - RELATIVE HUMIDITY.  PRES - PRESSURE.
      HX  - HEAT INDEX.         WCI  - WIND CHILL INDEX.
$



USA.gov is the U.S. government's official web portal to all federal, state and local government web resources and services.